View from above orbital plane
|
View from above satellite
|
Ground track
|
The orbit data is extracted from the following two-line orbital elements,
1 23705U 95058B 22228.49074744 .00000272 00000-0 16454-3 0 9993
2 23705 71.0230 31.3104 0014280 298.1731 61.7948 14.15179444383740
Epoch (UTC): | 16 August 2022 11:46:40 |
Eccentricity: | 0.0014280 |
inclination: | 71.0230° |
perigee height: | 831 km |
apogee height: | 852 km |
right ascension of ascending node: | 31.3104° |
argument of perigee: | 298.1731° |
revolutions per day: | 14.15179444 |
mean anomaly at epoch: | 61.7948° |
orbit number at epoch: | 38374 |
The dashed part of the orbit path shows where the satellite is in the earth's shadow,
|
|